Regional Weather Roundup
Issued by NWS Kansas City/Pleasant Hill, MO

Home | Current Version | Previous Version | Text Only | Print | Product List | Glossary On
Versions: 1 2 3 4 5 6 7 8 9 10 11 12 13 14 15 16 17 18 19 20 21 22 23 24 25 26 27 28 29 30 31 32 33 34 35 36 37 38 39 40 41 42 43 44 45 46 47 48 49 50
000
ASUS43 KEAX 291711
RWREAX

WEATHER ROUNDUP FOR EASTERN KANSAS AND NORTHWEST MISSOURI
NATIONAL WEATHER SERVICE KANSAS CITY/PLEASANT HILL MO
1200 PM CDT SUN MAR 29 2015

KSZ040-057-103>105-MOZ028-029-037-043-291800-
...KANSAS CITY METROPOLITAN AREA...

CITY           SKY/WX    TMP DP  RH WIND       PRES   REMARKS
K.C. INTL      CLOUDY    52  41  66 SW12      29.99S
K.C. DOWNTOWN  CLOUDY    54  40  59 W8        30.00S
LEES SUMMIT    NOT AVBL
OLATHE - IXD   PTSUNNY   53  41  63 SW10      30.01R
OLATHE - OJC   PTSUNNY   51  41  68 W8        30.00R
LAWRENCE       CLOUDY    57  42  57 SW10      30.00F

$$

MOZ001>008-011>017-020>025-030>033-038>040-044>046-053-054-291800-
...NORTHERN AND CENTRAL MISSOURI...

CITY           SKY/WX    TMP DP  RH WIND       PRES   REMARKS
ST. JOSEPH     PTSUNNY   59  43  55 W10       29.97F
MOSBY            N/A     52  39  62 SW9       30.00R
WARRENSBURG    PTSUNNY   50  36  57 S13G18    30.02S
WHITEMAN AFB   PTSUNNY   50  37  60 SW21      30.00R
CLINTON        CLOUDY    48  36  61 SW10      30.03S
SEDALIA        CLOUDY    49  34  56 SW18      30.01S
WARSAW         NOT AVBL
MARSHALL       PTSUNNY   54  41  62 SW16G25   30.01S
CHILLICOTHE      N/A     50  38  63 SW9       29.97F
MOBERLY        MOSUNNY   50  34  53 SW20G25   29.99F
KIRKSVILLE     LGT RAIN  48  37  65 SW15G28   29.95F

$$

MOZ041-047>049-056>058-063>065-088>090-097-291800-
...EASTERN AND SOUTHERN MISSOURI...

CITY           SKY/WX    TMP DP  RH WIND       PRES   REMARKS
ST. LOUIS INTL PTSUNNY   55  25  31 S14G29    30.06F
SPIRIT OF STL  PTSUNNY   54  27  35 S17G31    30.03F
COLUMBIA       PTSUNNY   52  33  48 S18G26    29.99F
JEFFERSON CITY PTSUNNY   50  31  48 S9G23     29.99F
MEXICO         PTSUNNY   48  36  61 S18G26    29.98
HANNIBAL       MOSUNNY   54  28  37 SW17G23   29.98R
ROLLA          PTSUNNY   51  33  50 S22       30.03R
LEBANON        MOSUNNY   55  36  47 S14       30.02F
OSAGE BEACH    PTSUNNY   54  34  47 S12G18    30.01F
SPRINGFIELD    PTSUNNY   52  35  52 S15G22    30.02F
BRANSON        MOSUNNY   57  37  47 SE6       30.07R
NEVADA         CLOUDY    50  39  66 SW7       30.04F
JOPLIN         PTSUNNY   58  41  53 W9        30.05R
WEST PLAINS    CLOUDY    48  34  58 S15       30.11F

$$

IAZ060-094-KSZ022-034>040-054-083-096-NEZ052-066-093-291800-
...KANSAS...SOUTHEAST NEBRASKA AND IOWA...

CITY           SKY/WX    TMP DP  RH WIND       PRES   REMARKS
TOPEKA         CLOUDY    60  45  57 SW8       30.01R
EMPORIA        CLOUDY    62  45  53 W9        30.02R
CHANUTE        MOSUNNY   54  41  61 SW10      30.03S
WICHITA        PTSUNNY   64  45  49 NW9       30.04R
OMAHA          PTSUNNY   60  39  45 NW31G43   29.94R
LINCOLN        CLOUDY    60  38  43 NW32G41   30.02R
FALLS CITY     MOSUNNY   64  38  38 NW28G37   29.97S
LAMONI         MOSUNNY   55  41  59 SW18      29.92S
DES MOINES     MOSUNNY   57  40  52 W24G36    29.87S

$$




USA.gov is the U.S. government's official web portal to all federal, state and local government web resources and services.